Location: *
(50.8512°N, 5.6907°E)
Time: 17:51:28
(UTC+00:00)

Meteor 2-2 Rocket - Pass Details

Date: 09 April 2020
Orbit: 853 x 928 km, 81.3° (Epoch: 27 May)

Event Time Altitude Azimuth Distance (km) Brightness Sun altitude
Exits shadow 22:24:28 70° 45° (NE) 914 4.3 -29.0°
Drops below altitude 10° 22:29:33 10° 15° (NNE) 2,498 7.3 -29.3°
Sets 22:31:59 0° 14° (NNE) 3,437 8.2 -29.4°
